sat.trackr.live / text

‹ back to catalog

ONEWEB-0534

NORAD 55797 · 2023-029B

PAYLOAD ACTIVE UNKNOWN

§ Identity

Operator
Country
UK
Launch date
2023-03-09
Launch site
AFETR
Launch vehicle
Mass (kg)
RCS (m²)

Purposes: comms

External: N2YO · Heavens-Above · Gunter

§ Orbital elements

Epoch: 2026-09-19T16:45:39.835872Z

Period
109.03 min
Inclination
87.9133°
Eccentricity
0.0002026
Mean motion
13.20773011 rev/d
Perigee alt
1,180.2 km
Apogee alt
1,183.3 km
Semi-major
7,559.9 km
B*
1.4356e-4
RAAN
255.6071°
Arg perigee
84.6439°
Mean anomaly
275.4926°
Rev number
17,362

§ Raw data

ONEWEB-05341 55797U 23029B   26262.69837773  .00000071  00000+0  14356-3 0  99962 55797  87.9133 255.6071 0002026  84.6439 275.4926 13.20773011173625

JSON: /api/v1/satellites/55797 · /tle

For live sub-satellite position, see the globe view (requires WebGL).

§ Visibility from observer

Set your observer location to see the next 7 days of passes ≥ 10°. The values pass through the URL so the page stays shareable.

No JS? Fill the form by hand. The geolocation button needs JavaScript.